QPF
0.02 0.00 0.01 0.02 0.01 0.01 0.03 0.03 0.04 0.03 0.03 0.04 0.09 0.07 0.03 0.03 0.03 0.02 0.02 0.03 0.04 0.03 0.04 0.03 0.04 0.04 0.03 0.02 0.03 0.03 0.03 0.05 0.06 0.05 0.05 0.05 0.04 0.06 0.05 0.05 0.05 0.06 0.06 0.06
0.02 0.01 0.01 0.01 0.01 0.01 0.03 0.03 0.03 0.03 0.03 0.04 0.05 0.06 0.04 0.06 0.04 0.02 0.01 0.01 0.02 0.03 0.05 0.06 0.04 0.04 0.03 0.02 0.03 0.04 0.04 0.05 0.05 0.04 0.04 0.03 0.03 0.05 0.05 0.05 0.06 0.05 0.05 0.04
0.04 0.01 0.01 0.02 0.01 0.02 0.06 0.02 0.02 0.03 0.04 0.04 0.05 0.04 0.04 0.06 0.08 0.03 0.01 0.02 0.03 0.04 0.06 0.06 0.04 0.03 0.03 0.04 0.03 0.03 0.03 0.04 0.03 0.03 0.02 0.02 0.02 0.04 0.04 0.04 0.05 0.04 0.03 0.03
0.02 0.02 0.03 0.02 0.00 0.01 0.02 0.02 0.02 0.02 0.02 0.03 0.03 0.03 0.02 0.03 0.04 0.02 0.01 0.02 0.04 0.04 0.05 0.05 0.05 0.04 0.05 0.05 0.05 0.03 0.03 0.04 0.02 0.02 0.02 0.02 0.02 0.03 0.05 0.05 0.05 0.07 0.07 0.06
0.02 0.03 0.02 0.02 0.01 0.01 0.02 0.03 0.03 0.02 0.02 0.04 0.06 0.05 0.03 0.04 0.04 0.02 0.03 0.04 0.04 0.05 0.04 0.04 0.04 0.04 0.05 0.06 0.05 0.04 0.03 0.03 0.01 0.01 0.01 0.01 0.01 0.03 0.06 0.06 0.07 0.07 0.06 0.05
0.03 0.03 0.03 0.02 0.01 0.02 0.03 0.06 0.03 0.02 0.02 0.02 0.05 0.13 0.13 0.08 0.03 0.02 0.03 0.04 0.05 0.04 0.02 0.02 0.03 0.03 0.05 0.05 0.04 0.04 0.03 0.02 0.01 0.01 0.01 0.01 0.01 0.03 0.05 0.05 0.04 0.03 0.03 0.03
0.03 0.03 0.02 0.02 0.00 0.01 0.06 0.06 0.02 0.01 0.01 0.02 0.03 0.07 0.09 0.05 0.02 0.02 0.03 0.03 0.02 0.02 0.02 0.02 0.03 0.04 0.07 0.05 0.03 0.02 0.02 0.01 0.01 0.02 0.02 0.01 0.01 0.02 0.03 0.03 0.04 0.02 0.03 0.05
0.05 0.04 0.03 0.02 0.01 0.02 0.04 0.02 0.01 0.01 0.01 0.02 0.03 0.03 0.02 0.01 0.01 0.01 0.02 0.02 0.02 0.03 0.03 0.03 0.04 0.05 0.07 0.06 0.03 0.02 0.02 0.02 0.01 0.01 0.01 0.01 0.01 0.01 0.02 0.04 0.04 0.03 0.03 0.03
0.06 0.06 0.04 0.03 0.03 0.03 0.03 0.02 0.02 0.01 0.02 0.02 0.02 0.02 0.01 0.01 0.01 0.01 0.01 0.01 0.02 0.02 0.03 0.04 0.05 0.05 0.06 0.06 0.04 0.02 0.02 0.01 0.01 0.01 0.00 0.01 0.01 0.01 0.02 0.03 0.02 0.01 0.01 0.01
0.04 0.05 0.04 0.03 0.03 0.03 0.03 0.03 0.04 0.03 0.02 0.02 0.02 0.02 0.02 0.02 0.01 0.01 0.01 0.01 0.02 0.02 0.03 0.03 0.03 0.04 0.05 0.04 0.03 0.02 0.02 0.01 0.01 0.01 0.00 0.01 0.01 0.01 0.01 0.01 0.02 0.02 0.01 0.01
0.04 0.04 0.04 0.04 0.03 0.02 0.01 0.01 0.02 0.02 0.02 0.03 0.03 0.03 0.02 0.02 0.02 0.01 0.01 0.01 0.02 0.04 0.04 0.02 0.03 0.03 0.04 0.04 0.04 0.04 0.03 0.02 0.01 0.01 0.01 0.01 0.01 0.00 0.01 0.02 0.02 0.02 0.02 0.02
0.04 0.03 0.03 0.03 0.02 0.01 0.01 0.01 0.01 0.01 0.01 0.02 0.03 0.03 0.02 0.01 0.01 0.01 0.02 0.02 0.03 0.04 0.03 0.02 0.03 0.03 0.03 0.04 0.04 0.05 0.04 0.02 0.01 0.01 0.02 0.01 0.01 0.01 0.01 0.02 0.02 0.03 0.03 0.02
0.02 0.02 0.02 0.01 0.01 0.00 0.00 0.01 0.01 0.01 0.01 0.01 0.03 0.04 0.01 0.01 0.01 0.01 0.01 0.02 0.03 0.02 0.03 0.03 0.03 0.03 0.03 0.03 0.03 0.03 0.03 0.03 0.02 0.01 0.01 0.01 0.01 0.01 0.01 0.01 0.01 0.02 0.03 0.02
0.01 0.01 0.01 0.01 0.01 0.00 0.00 0.00 0.00 0.00 0.01 0.01 0.03 0.04 0.02 0.02 0.01 0.01 0.01 0.01 0.01 0.01 0.01 0.02 0.01 0.02 0.03 0.02 0.02 0.02 0.01 0.02 0.02 0.01 0.01 0.01 0.01 0.01 0.01 0.01 0.01 0.02 0.03 0.02
0.01 0.01 0.01 0.01 0.00 0.00 0.00 0.00 0.00 0.01 0.01 0.01 0.01 0.02 0.02 0.02 0.01 0.01 0.01 0.00 0.01 0.01 0.01 0.01 0.01 0.01 0.02 0.02 0.02 0.01 0.01 0.01 0.01 0.01 0.01 0.00 0.00 0.01 0.01 0.02 0.02 0.02 0.02 0.01
0.01 0.01 0.01 0.01 0.00 0.00 0.00 0.00 0.00 0.00 0.00 0.00 0.00 0.00 0.01 0.00 0.01 0.01 0.01 0.01 0.01 0.01 0.01 0.01 0.01 0.02 0.02 0.02 0.02 0.01 0.01 0.01 0.01 0.01 0.00 0.00 0.01 0.01 0.01 0.01 0.02 0.02 0.01 0.01
0.01 0.01 0.01 0.01 0.00 0.00 0.00 0.00 0.01 0.01 0.00 0.00 0.00 0.00 0.00 0.01 0.02 0.02 0.01 0.00 0.01 0.02 0.02 0.02 0.03 0.03 0.02 0.01 0.01 0.01 0.00 0.00 0.00 0.00 0.00 0.00 0.00 0.01 0.01 0.01 0.01 0.01 0.01 0.00
0.01 0.00 0.01 0.01 0.01 0.01 0.00 0.00 0.01 0.01 0.01 0.01 0.00 0.01 0.01 0.01 0.02 0.02 0.01 0.00 0.01 0.02 0.02 0.03 0.03 0.02 0.01 0.01 0.01 0.00 0.01 0.01 0.01 0.00 0.00 0.01 0.01 0.01 0.01 0.01 0.01 0.01 0.00 0.00
0.00 0.00 0.00 0.00 0.01 0.01 0.00 0.00 0.01 0.01 0.01 0.01 0.01 0.01 0.01 0.02 0.02 0.01 0.01 0.01 0.02 0.03 0.02 0.01 0.01 0.01 0.01 0.01 0.01 0.01 0.01 0.01 0.01 0.00 0.01 0.02 0.01 0.01 0.01 0.01 0.01 0.01 0.00 0.00
0.01 0.01 0.01 0.01 0.01 0.01 0.01 0.01 0.01 0.01 0.00 0.01 0.01 0.02 0.03 0.03 0.02 0.02 0.02 0.02 0.02 0.02 0.02 0.02 0.02 0.02 0.01 0.01 0.02 0.02 0.00 0.01 0.01 0.01 0.01 0.01 0.02 0.02 0.01 0.01 0.01 0.01 0.00 0.01
0.02 0.01 0.01 0.01 0.01 0.01 0.01 0.00 0.01 0.01 0.01 0.01 0.02 0.03 0.04 0.04 0.03 0.02 0.02 0.02 0.01 0.01 0.02 0.03 0.03 0.03 0.01 0.01 0.01 0.01 0.00 0.00 0.01 0.01 0.01 0.02 0.02 0.02 0.01 0.01 0.01 0.01 0.01 0.02
0.02 0.02 0.02 0.01 0.01 0.01 0.01 0.01 0.01 0.01 0.01 0.01 0.01 0.02 0.02 0.03 0.03 0.02 0.01 0.01 0.01 0.01 0.01 0.02 0.02 0.02 0.02 0.01 0.01 0.01 0.01 0.01 0.01 0.01 0.01 0.02 0.02 0.01 0.01 0.01 0.01 0.01 0.02 0.03
0.03 0.02 0.02 0.02 0.02 0.02 0.01 0.01 0.01 0.01 0.01 0.02 0.02 0.01 0.01 0.01 0.02 0.02 0.02 0.02 0.02 0.02 0.02 0.02 0.02 0.02 0.02 0.01 0.01 0.01 0.01 0.01 0.01 0.01 0.01 0.01 0.01 0.01 0.01 0.01 0.01 0.02 0.02 0.03
0.02 0.02 0.02 0.02 0.02 0.02 0.02 0.01 0.01 0.01 0.02 0.02 0.02 0.01 0.01 0.01 0.01 0.01 0.01 0.02 0.03 0.03 0.02 0.02 0.02 0.03 0.02 0.01 0.01 0.01 0.01 0.00 0.01 0.01 0.01 0.01 0.01 0.01 0.01 0.01 0.02 0.02 0.02 0.02
0.01 0.01 0.02 0.02 0.02 0.01 0.01 0.01 0.01 0.02 0.03 0.03 0.01 0.01 0.01 0.01 0.01 0.01 0.01 0.01 0.02 0.02 0.01 0.01 0.01 0.01 0.01 0.01 0.00 0.01 0.01 0.01 0.01 0.01 0.01 0.01 0.01 0.01 0.02 0.03 0.03 0.03 0.03 0.03
0.02 0.02 0.02 0.02 0.02 0.02 0.01 0.01 0.02 0.03 0.03 0.02 0.01 0.01 0.01 0.02 0.02 0.01 0.01 0.01 0.01 0.00 0.01 0.01 0.01 0.01 0.01 0.01 0.00 0.00 0.01 0.01 0.01 0.01 0.01 0.01 0.01 0.01 0.02 0.03 0.02 0.03 0.03 0.03
0.01 0.01 0.01 0.01 0.02 0.03 0.02 0.03 0.03 0.03 0.03 0.02 0.02 0.03 0.02 0.02 0.02 0.02 0.01 0.01 0.01 0.00 0.01 0.01 0.01 0.01 0.01 0.01 0.00 0.00 0.00 0.00 0.00 0.01 0.01 0.01 0.02 0.02 0.02 0.02 0.02 0.03 0.03 0.03
MSLP
1000.84 1001.45 1002.00 1002.55 1003.16 1003.88 1004.77 1005.84 1007.06 1008.39 1009.75 1011.05 1012.17 1013.06 1013.66 1013.96 1013.99 1013.82 1013.52 1013.18 1012.90 1012.74 1012.73 1012.88 1013.17 1013.57 1014.01 1014.45 1014.85 1015.18 1015.44 1015.65 1015.83 1016.00 1016.20 1016.45 1016.75 1017.08 1017.44 1017.80 1018.11 1018.35 1018.49 1018.52
1000.90 1001.49 1002.01 1002.49 1002.99 1003.58 1004.32 1005.24 1006.32 1007.54 1008.83 1010.10 1011.25 1012.21 1012.91 1013.34 1013.51 1013.46 1013.26 1013.01 1012.79 1012.67 1012.69 1012.87 1013.19 1013.62 1014.11 1014.62 1015.09 1015.49 1015.82 1016.08 1016.29 1016.48 1016.67 1016.90 1017.18 1017.50 1017.85 1018.20 1018.52 1018.77 1018.94 1019.00
1000.89 1001.48 1001.98 1002.41 1002.84 1003.33 1003.94 1004.71 1005.66 1006.76 1007.96 1009.18 1010.34 1011.35 1012.14 1012.69 1012.99 1013.07 1013.00 1012.84 1012.70 1012.62 1012.67 1012.86 1013.19 1013.64 1014.17 1014.71 1015.23 1015.69 1016.08 1016.39 1016.63 1016.84 1017.03 1017.25 1017.50 1017.79 1018.10 1018.43 1018.74 1018.99 1019.17 1019.24
1000.79 1001.38 1001.88 1002.29 1002.68 1003.11 1003.62 1004.28 1005.11 1006.09 1007.20 1008.36 1009.50 1010.54 1011.42 1012.07 1012.50 1012.73 1012.79 1012.75 1012.68 1012.66 1012.74 1012.94 1013.27 1013.72 1014.24 1014.80 1015.34 1015.84 1016.26 1016.60 1016.88 1017.10 1017.29 1017.48 1017.69 1017.94 1018.21 1018.49 1018.76 1019.00 1019.17 1019.25
1000.59 1001.17 1001.67 1002.10 1002.49 1002.89 1003.36 1003.94 1004.67 1005.55 1006.57 1007.67 1008.79 1009.85 1010.79 1011.55 1012.11 1012.47 1012.67 1012.75 1012.78 1012.82 1012.93 1013.14 1013.45 1013.88 1014.38 1014.92 1015.46 1015.97 1016.41 1016.77 1017.06 1017.28 1017.46 1017.63 1017.80 1017.98 1018.19 1018.42 1018.64 1018.84 1018.99 1019.07
1000.28 1000.84 1001.36 1001.82 1002.24 1002.66 1003.11 1003.66 1004.33 1005.14 1006.09 1007.13 1008.22 1009.28 1010.27 1011.11 1011.79 1012.29 1012.62 1012.83 1012.96 1013.08 1013.22 1013.44 1013.74 1014.13 1014.60 1015.11 1015.63 1016.12 1016.55 1016.92 1017.21 1017.43 1017.59 1017.73 1017.85 1017.98 1018.13 1018.29 1018.46 1018.62 1018.75 1018.84
999.90 1000.43 1000.96 1001.46 1001.93 1002.39 1002.87 1003.42 1004.07 1004.83 1005.72 1006.72 1007.77 1008.83 1009.85 1010.76 1011.54 1012.15 1012.62 1012.95 1013.19 1013.38 1013.57 1013.80 1014.09 1014.45 1014.88 1015.34 1015.83 1016.29 1016.71 1017.07 1017.35 1017.57 1017.72 1017.83 1017.91 1018.00 1018.09 1018.20 1018.33 1018.45 1018.57 1018.65
999.51 999.98 1000.50 1001.04 1001.57 1002.09 1002.63 1003.20 1003.86 1004.61 1005.46 1006.41 1007.43 1008.48 1009.50 1010.46 1011.31 1012.03 1012.61 1013.05 1013.39 1013.66 1013.91 1014.16 1014.45 1014.79 1015.17 1015.60 1016.04 1016.47 1016.87 1017.22 1017.49 1017.70 1017.84 1017.94 1018.01 1018.06 1018.12 1018.20 1018.29 1018.40 1018.51 1018.60
999.17 999.56 1000.06 1000.62 1001.20 1001.79 1002.39 1003.01 1003.69 1004.44 1005.27 1006.19 1007.17 1008.20 1009.22 1010.20 1011.10 1011.89 1012.55 1013.09 1013.52 1013.87 1014.17 1014.46 1014.75 1015.07 1015.43 1015.82 1016.23 1016.63 1017.00 1017.33 1017.60 1017.81 1017.96 1018.05 1018.12 1018.17 1018.22 1018.29 1018.38 1018.49 1018.61 1018.72
998.95 999.25 999.70 1000.26 1000.88 1001.52 1002.18 1002.86 1003.58 1004.34 1005.16 1006.04 1006.99 1007.98 1008.98 1009.96 1010.88 1011.71 1012.44 1013.05 1013.56 1013.97 1014.32 1014.64 1014.95 1015.27 1015.60 1015.96 1016.33 1016.70 1017.06 1017.37 1017.64 1017.85 1018.00 1018.12 1018.20 1018.27 1018.34 1018.43 1018.54 1018.67 1018.81 1018.95
998.92 999.11 999.50 1000.04 1000.67 1001.35 1002.06 1002.78 1003.52 1004.29 1005.11 1005.97 1006.88 1007.82 1008.79 1009.74 1010.65 1011.50 1012.26 1012.92 1013.47 1013.94 1014.34 1014.68 1015.01 1015.32 1015.64 1015.97 1016.31 1016.65 1016.98 1017.28 1017.54 1017.76 1017.93 1018.06 1018.18 1018.28 1018.39 1018.51 1018.66 1018.83 1019.01 1019.18
999.13 999.22 999.54 1000.03 1000.64 1001.32 1002.05 1002.79 1003.55 1004.33 1005.13 1005.96 1006.83 1007.73 1008.65 1009.56 1010.44 1011.28 1012.04 1012.71 1013.30 1013.79 1014.22 1014.58 1014.91 1015.22 1015.53 1015.83 1016.14 1016.44 1016.74 1017.02 1017.27 1017.48 1017.67 1017.83 1017.98 1018.12 1018.28 1018.45 1018.64 1018.86 1019.07 1019.27
999.61 999.61 999.84 1000.26 1000.82 1001.48 1002.19 1002.93 1003.68 1004.45 1005.23 1006.03 1006.85 1007.70 1008.56 1009.42 1010.26 1011.06 1011.80 1012.47 1013.06 1013.56 1013.99 1014.37 1014.69 1014.99 1015.27 1015.54 1015.81 1016.08 1016.34 1016.58 1016.81 1017.03 1017.22 1017.40 1017.58 1017.76 1017.96 1018.17 1018.41 1018.66 1018.92 1019.15
1000.35 1000.27 1000.41 1000.75 1001.23 1001.83 1002.49 1003.19 1003.91 1004.65 1005.40 1006.16 1006.94 1007.73 1008.53 1009.33 1010.12 1010.87 1011.58 1012.22 1012.78 1013.28 1013.70 1014.06 1014.37 1014.64 1014.89 1015.13 1015.35 1015.58 1015.80 1016.01 1016.21 1016.41 1016.60 1016.80 1017.00 1017.21 1017.44 1017.69 1017.96 1018.24 1018.52 1018.78
1001.34 1001.19 1001.24 1001.47 1001.86 1002.36 1002.94 1003.57 1004.24 1004.93 1005.63 1006.34 1007.07 1007.81 1008.56 1009.30 1010.03 1010.72 1011.38 1011.98 1012.51 1012.97 1013.37 1013.71 1013.99 1014.23 1014.45 1014.64 1014.82 1015.00 1015.18 1015.35 1015.53 1015.71 1015.90 1016.10 1016.31 1016.54 1016.79 1017.07 1017.36 1017.66 1017.95 1018.22
1002.51 1002.30 1002.26 1002.38 1002.65 1003.03 1003.50 1004.04 1004.63 1005.25 1005.89 1006.56 1007.23 1007.92 1008.61 1009.30 1009.97 1010.61 1011.21 1011.76 1012.25 1012.68 1013.04 1013.34 1013.59 1013.80 1013.98 1014.13 1014.27 1014.41 1014.55 1014.69 1014.85 1015.01 1015.20 1015.40 1015.62 1015.86 1016.13 1016.41 1016.71 1017.02 1017.32 1017.59
1003.78 1003.51 1003.38 1003.39 1003.52 1003.77 1004.12 1004.54 1005.03 1005.57 1006.15 1006.75 1007.38 1008.02 1008.66 1009.30 1009.92 1010.51 1011.07 1011.57 1012.01 1012.40 1012.72 1012.99 1013.20 1013.38 1013.52 1013.64 1013.75 1013.86 1013.97 1014.10 1014.24 1014.39 1014.58 1014.78 1015.02 1015.27 1015.55 1015.84 1016.15 1016.45 1016.75 1017.02
1005.05 1004.73 1004.50 1004.39 1004.38 1004.49 1004.70 1005.01 1005.39 1005.84 1006.34 1006.89 1007.47 1008.07 1008.67 1009.27 1009.85 1010.41 1010.92 1011.38 1011.78 1012.13 1012.42 1012.65 1012.84 1012.98 1013.10 1013.19 1013.28 1013.37 1013.47 1013.59 1013.73 1013.90 1014.09 1014.31 1014.56 1014.84 1015.13 1015.43 1015.74 1016.05 1016.34 1016.60
1006.20 1005.83 1005.51 1005.27 1005.14 1005.11 1005.19 1005.37 1005.64 1006.01 1006.44 1006.94 1007.47 1008.04 1008.61 1009.18 1009.74 1010.26 1010.74 1011.17 1011.54 1011.86 1012.12 1012.33 1012.49 1012.62 1012.72 1012.80 1012.87 1012.96 1013.06 1013.18 1013.33 1013.51 1013.73 1013.97 1014.25 1014.55 1014.87 1015.19 1015.51 1015.82 1016.11 1016.38
1007.15 1006.71 1006.31 1005.97 1005.71 1005.55 1005.51 1005.58 1005.76 1006.04 1006.41 1006.86 1007.36 1007.89 1008.45 1009.00 1009.54 1010.05 1010.51 1010.92 1011.28 1011.58 1011.82 1012.01 1012.15 1012.27 1012.35 1012.43 1012.50 1012.58 1012.68 1012.81 1012.98 1013.18 1013.43 1013.70 1014.01 1014.35 1014.69 1015.04 1015.38 1015.71 1016.02 1016.29
1007.82 1007.32 1006.84 1006.41 1006.05 1005.79 1005.65 1005.62 1005.72 1005.93 1006.25 1006.65 1007.13 1007.64 1008.19 1008.73 1009.26 1009.76 1010.22 1010.62 1010.97 1011.26 1011.49 1011.67 1011.80 1011.91 1011.99 1012.05 1012.12 1012.20 1012.31 1012.44 1012.62 1012.84 1013.11 1013.41 1013.76 1014.12 1014.50 1014.89 1015.26 1015.62 1015.94 1016.24
1008.18 1007.65 1007.11 1006.61 1006.18 1005.84 1005.62 1005.52 1005.56 1005.71 1005.99 1006.36 1006.80 1007.31 1007.84 1008.38 1008.90 1009.40 1009.86 1010.26 1010.60 1010.89 1011.12 1011.29 1011.42 1011.52 1011.59 1011.65 1011.71 1011.79 1011.89 1012.02 1012.20 1012.43 1012.70 1013.03 1013.39 1013.79 1014.20 1014.62 1015.03 1015.42 1015.78 1016.11
1008.28 1007.72 1007.15 1006.62 1006.14 1005.76 1005.48 1005.34 1005.32 1005.44 1005.67 1006.01 1006.43 1006.92 1007.43 1007.96 1008.48 1008.98 1009.43 1009.83 1010.18 1010.47 1010.69 1010.87 1011.00 1011.10 1011.16 1011.21 1011.26 1011.32 1011.41 1011.53 1011.70 1011.91 1012.19 1012.51 1012.88 1013.29 1013.73 1014.17 1014.61 1015.04 1015.44 1015.81
1008.17 1007.61 1007.05 1006.50 1006.01 1005.61 1005.31 1005.13 1005.09 1005.17 1005.37 1005.67 1006.07 1006.52 1007.02 1007.53 1008.03 1008.51 1008.96 1009.36 1009.70 1009.99 1010.22 1010.40 1010.53 1010.63 1010.69 1010.73 1010.77 1010.82 1010.88 1010.98 1011.12 1011.32 1011.57 1011.88 1012.24 1012.65 1013.09 1013.55 1014.02 1014.48 1014.92 1015.33
1007.96 1007.43 1006.89 1006.37 1005.89 1005.49 1005.19 1004.99 1004.92 1004.98 1005.14 1005.40 1005.76 1006.17 1006.62 1007.10 1007.57 1008.02 1008.45 1008.84 1009.17 1009.46 1009.69 1009.88 1010.02 1010.12 1010.19 1010.23 1010.26 1010.29 1010.34 1010.42 1010.53 1010.70 1010.92 1011.20 1011.54 1011.93 1012.37 1012.83 1013.31 1013.79 1014.26 1014.70
1007.76 1007.28 1006.79 1006.31 1005.86 1005.48 1005.18 1004.98 1004.89 1004.91 1005.03 1005.25 1005.54 1005.89 1006.29 1006.70 1007.12 1007.53 1007.92 1008.28 1008.60 1008.88 1009.12 1009.31 1009.46 1009.57 1009.65 1009.71 1009.75 1009.78 1009.82 1009.88 1009.98 1010.12 1010.31 1010.56 1010.87 1011.24 1011.65 1012.11 1012.58 1013.07 1013.55 1014.02
1007.65 1007.24 1006.81 1006.38 1005.97 1005.62 1005.33 1005.13 1005.02 1004.99 1005.06 1005.21 1005.43 1005.70 1006.02 1006.35 1006.70 1007.05 1007.38 1007.70 1007.99 1008.25 1008.48 1008.68 1008.85 1008.98 1009.09 1009.17 1009.23 1009.28 1009.33 1009.39 1009.48 1009.61 1009.79 1010.02 1010.30 1010.65 1011.04 1011.48 1011.94 1012.43 1012.92 1013.40
Thickness
5741 5750 5747 5746 5745 5743 5735 5730 5719 5719 5715 5713 5716 5715 5717 5716 5714 5713 5711 5709 5706 5704 5702 5699 5697 5695 5694 5692 5691 5689 5686 5682 5680 5678 5676 5674 5672 5671 5669 5667 5665 5663 5660 5658
5730 5743 5745 5742 5743 5740 5735 5732 5727 5724 5718 5724 5722 5719 5715 5713 5711 5707 5708 5707 5706 5703 5700 5697 5695 5693 5692 5690 5689 5687 5684 5681 5679 5676 5674 5672 5670 5668 5667 5664 5662 5660 5657 5654
5716 5735 5737 5725 5737 5736 5731 5732 5726 5716 5717 5722 5717 5713 5711 5709 5707 5706 5706 5705 5703 5700 5697 5695 5694 5693 5690 5689 5687 5685 5682 5680 5677 5675 5672 5670 5669 5666 5663 5661 5659 5656 5654 5652
5716 5719 5702 5727 5749 5744 5733 5729 5729 5724 5723 5722 5717 5715 5714 5712 5707 5705 5704 5702 5700 5698 5696 5694 5693 5692 5690 5688 5685 5682 5679 5677 5675 5673 5671 5669 5666 5664 5661 5659 5656 5653 5651 5649
5710 5708 5713 5729 5740 5739 5727 5718 5726 5722 5720 5720 5720 5714 5709 5710 5707 5703 5701 5699 5698 5697 5695 5692 5690 5689 5686 5684 5682 5679 5677 5675 5674 5672 5669 5666 5664 5661 5659 5656 5654 5651 5649 5646
5707 5700 5699 5718 5738 5745 5728 5707 5723 5722 5717 5715 5712 5697 5695 5704 5704 5702 5699 5698 5696 5695 5693 5689 5687 5685 5682 5679 5678 5676 5675 5673 5672 5670 5667 5664 5662 5659 5657 5654 5651 5649 5647 5644
5701 5700 5708 5723 5735 5733 5700 5697 5718 5718 5714 5711 5704 5699 5700 5701 5699 5698 5696 5694 5693 5691 5688 5686 5685 5682 5678 5675 5674 5674 5673 5671 5669 5667 5664 5662 5660 5657 5654 5651 5649 5646 5644 5642
5699 5694 5695 5717 5720 5708 5701 5711 5715 5712 5710 5706 5703 5701 5699 5696 5694 5692 5691 5690 5689 5686 5683 5683 5681 5678 5673 5671 5672 5671 5669 5667 5665 5664 5662 5661 5657 5654 5652 5649 5645 5643 5641 5639
5696 5690 5700 5708 5704 5705 5708 5705 5706 5705 5704 5701 5697 5695 5693 5690 5688 5687 5686 5684 5683 5681 5678 5677 5677 5674 5670 5669 5669 5667 5665 5662 5661 5660 5659 5657 5655 5652 5649 5646 5644 5641 5639 5637
5692 5694 5699 5701 5702 5702 5703 5700 5700 5699 5697 5695 5690 5689 5686 5683 5682 5681 5679 5679 5677 5675 5673 5672 5672 5671 5668 5667 5666 5663 5661 5659 5657 5656 5655 5653 5652 5651 5648 5645 5643 5641 5639 5636
5686 5689 5692 5692 5693 5695 5695 5694 5693 5692 5691 5688 5685 5683 5681 5678 5676 5675 5674 5673 5672 5669 5668 5668 5668 5666 5665 5664 5663 5659 5657 5655 5654 5653 5651 5649 5648 5646 5645 5643 5640 5638 5637 5634
5676 5682 5681 5681 5686 5688 5685 5684 5684 5683 5682 5681 5680 5676 5675 5673 5671 5670 5668 5667 5666 5665 5665 5665 5664 5663 5662 5661 5659 5656 5653 5652 5651 5650 5649 5648 5646 5643 5641 5639 5636 5634 5633 5629
5680 5683 5681 5679 5679 5680 5678 5677 5678 5676 5674 5672 5672 5670 5668 5666 5665 5664 5663 5662 5661 5660 5660 5661 5660 5659 5659 5658 5656 5653 5650 5650 5649 5649 5647 5646 5645 5642 5639 5635 5633 5632 5630 5627
5677 5674 5668 5669 5669 5671 5671 5671 5670 5669 5669 5667 5665 5663 5661 5659 5659 5658 5657 5657 5658 5657 5657 5656 5655 5654 5655 5655 5653 5651 5650 5648 5647 5647 5647 5645 5644 5642 5640 5637 5634 5632 5629 5625
5665 5665 5663 5663 5664 5663 5663 5662 5659 5658 5659 5658 5657 5655 5653 5651 5651 5651 5653 5653 5652 5652 5652 5651 5650 5651 5652 5652 5650 5648 5647 5647 5646 5646 5646 5645 5644 5643 5641 5638 5636 5633 5631 5626
5657 5658 5657 5654 5653 5653 5653 5651 5650 5650 5651 5650 5650 5648 5647 5647 5646 5646 5647 5648 5646 5645 5646 5647 5646 5648 5649 5648 5646 5645 5645 5644 5642 5643 5643 5643 5643 5641 5640 5638 5635 5633 5630 5626
5643 5642 5643 5642 5644 5644 5644 5644 5644 5644 5644 5643 5643 5644 5642 5641 5640 5639 5641 5642 5642 5643 5644 5643 5643 5645 5646 5645 5644 5643 5643 5643 5639 5640 5641 5641 5641 5639 5638 5636 5634 5631 5629 5625
5639 5639 5638 5637 5637 5637 5637 5639 5639 5638 5637 5638 5638 5638 5636 5634 5633 5633 5636 5637 5638 5639 5640 5641 5640 5641 5642 5642 5641 5641 5641 5641 5640 5639 5639 5638 5637 5636 5635 5634 5632 5629 5626 5623
5632 5632 5632 5631 5631 5630 5631 5631 5631 5632 5632 5633 5632 5630 5630 5630 5629 5630 5631 5631 5632 5632 5634 5636 5635 5637 5638 5638 5636 5637 5638 5639 5638 5637 5637 5634 5633 5633 5632 5631 5629 5626 5624 5621
5623 5624 5624 5623 5623 5623 5623 5624 5624 5624 5625 5625 5624 5623 5622 5622 5624 5625 5625 5626 5628 5629 5631 5632 5632 5632 5634 5634 5632 5635 5636 5636 5635 5635 5634 5632 5631 5629 5628 5627 5626 5624 5620 5618
5612 5614 5615 5615 5614 5615 5615 5616 5615 5616 5617 5618 5617 5616 5617 5617 5619 5620 5619 5620 5624 5627 5627 5626 5628 5628 5630 5629 5628 5632 5633 5633 5633 5632 5631 5629 5627 5626 5625 5623 5622 5620 5617 5615
5604 5605 5605 5605 5604 5605 5607 5608 5609 5609 5610 5612 5612 5613 5613 5613 5614 5615 5617 5618 5620 5619 5622 5624 5625 5623 5624 5624 5627 5628 5629 5630 5630 5629 5628 5625 5623 5622 5621 5619 5617 5616 5614 5612
5595 5596 5596 5596 5596 5597 5598 5599 5601 5603 5604 5606 5607 5608 5609 5610 5611 5612 5612 5616 5617 5614 5617 5619 5618 5617 5617 5621 5624 5624 5626 5626 5626 5625 5624 5622 5621 5619 5618 5615 5614 5613 5611 5608
5585 5586 5588 5589 5590 5589 5590 5593 5595 5597 5599 5601 5604 5605 5606 5607 5609 5612 5613 5613 5612 5611 5614 5614 5612 5613 5613 5618 5620 5622 5622 5622 5622 5622 5621 5620 5618 5616 5614 5612 5610 5609 5607 5605
5579 5580 5581 5582 5582 5584 5586 5587 5589 5591 5593 5596 5599 5602 5604 5605 5605 5608 5609 5610 5608 5607 5610 5611 5610 5610 5612 5616 5618 5619 5618 5618 5618 5617 5616 5615 5613 5611 5609 5608 5605 5604 5603 5601
5573 5574 5576 5576 5578 5580 5583 5584 5585 5587 5589 5590 5593 5596 5599 5601 5602 5603 5605 5606 5606 5604 5607 5609 5610 5609 5611 5613 5614 5615 5615 5615 5614 5613 5611 5610 5609 5607 5604 5603 5601 5600 5598 5597
5569 5571 5572 5575 5577 5578 5579 5581 5582 5583 5585 5586 5587 5590 5592 5595 5596 5596 5598 5600 5602 5602 5604 5606 5607 5608 5609 5609 5610 5611 5611 5611 5610 5608 5607 5604 5603 5601 5599 5598 5596 5595 5593 5592